EHI
0 0 0 0 0 0 0 0 0 0 0 0 0 0 0 0 0 0 0 0 0 0 0 0 0 0 0 0 0 0 0 0 0 0 0 0 0 0 0 0 0 0 0
0 0 0 0 0 0 0 0 0 0 0 0 0 0 0 0 0 0 0 0 0 0 0 0 0 0 0 0 0 0 0 0 0 0 0 0 0 0 0 0 0 0 0
0 0 0 0 0 0 0 0 0 0 0 0 0 0 0 0 0 0 0 0 0 0 0 0 0 0 0 0 0 0 0 0 0 0 0 0 0 0 0 0 0 0 0
0 0 0 0 0 0 0 0 0 0 0 0 0 0 0 0 0 0 0 0 0 0 0 0 0 0 0 0 0 0 0 0 0 0 0 0 0 0 0 0 0 0 0
0 0 0 0 0 0 0 0 0 0 0 0 0 0 0 0 0 0 0 0 0 0 0 0 0 0 0 0 0 0 0 0 0 0 0 0 0 0 0 0 0 0 0
0 0 0 0 0 0 0 0 0 0 0 0 0 0 0 0 0 0 0 0 0 0 0 0 0 0 0 0 0 0 0 0 0 0 0 0 0 0 0 0 0 0 0
0 0 0 0 0 0 0 0 0 0 0 0 0 0 0 0 0 0 0 0 0 0 0 0 0 0 0 0 0 0 0 0 0 0 0 0 0 0 0 0 0 0 0
0 0 0 0 0 0 0 0 0 0 0 0 0 0 0 0 0 0 0 0 0 0 0 0 0 0 0 0 0 0 0 0 0 0 0 0 0 0 0 0 0 0 0
0 0 0 0 0 0 0 0 0 0 0 0 0 0 0 0 0 0 0 0 0 0 0 0 0 0 0 0 0 0 0 0 0 0 0 0 0 0 0 0 0 0 0
0 0 0 0 0 0 0 0 0 0 0 0 0 0 0 0 0 0 0 0 0 0 0 0 0 0 0 0 0 0 0 0 0 0 0 0 0 0 0 0 0 0 0
0 0 0 0 0 0 0 0 0 0 0 0 0 0 0 0 0 0 0 0 0 0 0 0 0 0 0 0 0 0 0 0 0 0 0 0 0 0 0 0 0 0 0
0 0 0 0 0 0 0 0 0 0 0 0 0 0 0 0 0 0 0 0 0 0 0 0 0 0 0 0 0 0 0 0 0 0 0 0 0 0 0 0 0 0 0
0 0 0 0 0 0 0 0 0 0 0 0 0 0 0 0 0 0 0 0 0 0 0 0 0 0 0 0 0 0 0 0 0 0 0 0 0 0 0 0 0 0 0
0 0 0 0 0 0 0 0 0 0 0 0 0 0 0 0 0 0 0 0 0 0 0 0 0 0 0 0 0 0 0 0 0 0 0 0 0 0 0 0 0 0 0
0 0 0 0 0 0 0 0 0 0 0 0 0 0 0 0 0 0 0 0 0 0 0 0 0 0 0 0 0 0 0 0 0 0 0 0 0 0 0 0 0 0 0
0 0 0 0 0 0 0 0 0 0 0 0 0 0 0 0 0 0 0 0 0 0 0 0 0 0 0 0 0 0 0 0 0 0 0 0 0 0 0 0 0 0 0
0 0 0 0 0 0 0 0 0 0 0 0 0 0 0 0 0 0 0 0 0 0 0 0 0 0 0 0 0 0 0 0 0 0 0 0 0 0 0 0 0 0 0
0 0 0 0 0 0 0 0 0 0 0 0 0 0 0 0 0 0 0 0 0 0 0 0 0 0 0 0 0 0 0 0 0 0 0 0 0 0 0 0 0 0 0
0 0 0 0 0 0 0 0 0 0 0 0 0 0 0 0 0 0 0 0 0 0 0 0 0 0 0 0 0 0 0 0 0 0 0 0 0 0 0 0 0 0 0
0 0 0 0 0 0 0 0 0 0 0 0 0 0 0 0 0 0 0 0 0 0 0 0 0 0 0 0 0 0 0 0 0 0 0 0 0 0 0 0 0 0 0
0 0 0 0 0 0 0 0 0 0 0 0 0 0 0 0 0 0 0 0 0 0 0 0 0 0 0 0 0 0 0 0 0 0 0 0 0 0 0 0 0 0 0
0 0 0 0 0 0 0 0 0 0 0 0 0 0 0 0 0 0 0 0 0 0 0 0 0 0 0 0 0 0 0 0 0 0 0 0 0 0 0 0 0 0 0
0 0 0 0 0 0 0 0 0 0 0 0 0 0 0 0 0 0 0 0 0 0 0 0 0 0 0 0 0 0 0 0 0 0 0 0 0 0 0 0 0 0 0
0 0 0 0 0 0 0 0 0 0 0 0 0 0 0 0 0 0 0 0 0 0 0 0 0 0 0 0 0 0 0 0 0 0 0 0 0 0 0 0 0 0 0
0 0 0 0 0 0 0 0 0 0 0 0 0 0 0 0 0 0 0 0 0 0 0 0 0 0 0 0 0 0 0 0 0 0 0 0 0 0 0 0 0 0 0
0 0 0 0 0 0 0 0 0 0 0 0 0 0 0 0 0 0 0 0 0 0 0 0 0 0 0 0 0 0 0 0 0 0 0 0 0 0 0 0 0 0 0
Wind_Speed
2 2 2 2 2 2 2 2 2 2 3 4 4 4 4 4 4 4 4 4 5 4 3 4 4 3 3 2 3 2 2 3 3 1 1 1 2 2 1 1 2 2 3
2 2 2 1 1 2 2 1 2 2 2 3 3 3 4 4 4 5 5 5 5 5 5 4 5 4 4 3 3 3 3 3 4 3 2 2 2 2 2 2 2 2 2
0 1 1 1 1 2 2 2 2 2 2 2 2 3 4 4 4 4 5 5 5 5 5 5 5 5 5 4 4 4 3 3 3 3 3 2 1 1 1 1 1 1 2
0 0 1 1 1 2 1 1 2 2 2 2 2 3 3 3 4 4 4 4 4 4 5 5 6 6 6 6 5 5 4 4 4 3 3 2 2 2 2 2 1 1 2
0 1 1 1 1 0 0 1 1 1 1 2 2 1 2 2 3 4 4 5 4 4 4 4 5 6 8 7 5 5 6 5 4 4 3 2 2 2 3 2 2 1 2
1 1 1 1 0 0 0 0 0 1 1 1 2 2 2 2 3 5 4 4 4 4 4 4 4 5 7 9 9 8 8 7 6 5 4 4 4 4 3 3 2 1 2
1 1 1 1 1 1 1 1 0 0 0 1 1 2 2 3 4 5 5 3 4 4 4 4 3 4 5 4 6 6 7 9 9 7 6 6 5 5 5 4 4 4 4
1 2 1 1 1 1 1 0 1 0 1 1 1 2 2 2 3 4 5 3 2 3 4 4 4 4 4 5 4 3 3 5 6 5 6 6 6 5 6 5 4 3 2
2 2 2 1 1 1 1 1 1 0 1 1 1 1 2 2 3 4 4 2 2 3 3 3 4 4 6 7 5 4 3 3 5 6 7 6 7 8 6 3 3 2 3
3 3 2 1 1 1 1 2 1 1 1 1 1 1 2 2 3 4 4 2 2 2 2 3 5 5 6 7 5 4 4 4 3 3 3 4 4 5 7 5 5 3 2
3 2 2 2 1 1 1 1 1 1 1 1 1 1 1 1 2 3 4 2 2 2 2 2 2 5 6 6 5 4 5 4 3 3 3 2 2 2 3 4 4 5 4
3 2 2 2 2 1 1 1 1 0 0 1 1 1 1 1 1 2 3 3 2 2 2 2 2 4 4 5 4 4 5 4 2 2 2 3 3 3 3 3 4 4 4
3 3 3 2 2 1 1 1 1 1 0 0 0 1 2 1 1 2 2 3 3 1 2 3 3 3 3 2 3 4 3 2 2 3 3 3 3 3 2 2 2 2 2
3 3 3 2 2 2 2 1 1 1 1 1 1 1 1 1 1 1 1 1 1 1 1 1 1 2 1 1 1 1 1 2 3 3 2 2 2 2 2 2 2 2 2
3 3 3 2 2 2 2 2 2 1 1 1 1 1 1 2 3 3 1 1 1 1 1 1 0 0 0 0 0 0 1 1 2 1 2 2 2 2 2 2 2 2 3
3 3 3 2 2 2 2 3 5 4 4 3 3 2 2 3 3 3 3 3 3 2 1 1 1 1 2 2 2 1 1 2 2 2 2 2 2 3 2 2 2 3 3
3 3 3 2 2 2 2 2 3 4 5 4 3 3 3 3 3 2 2 2 3 2 1 1 2 2 2 2 2 2 2 2 2 2 3 3 2 2 2 3 3 3 3
4 4 3 2 2 2 2 2 2 2 3 3 4 4 3 3 2 2 1 1 1 0 0 1 2 2 2 2 2 2 2 2 2 2 2 3 3 3 3 3 3 4 4
4 3 3 2 2 2 2 2 2 2 2 2 3 3 4 4 3 2 2 1 1 1 1 1 1 1 2 2 2 2 2 3 3 2 3 3 3 3 3 3 3 5 4
4 5 5 3 2 2 2 2 2 2 2 2 2 2 3 3 2 2 2 1 1 1 1 1 1 1 2 2 2 2 2 3 3 3 3 3 3 3 3 4 3 3 3
3 4 6 4 3 2 2 2 2 2 2 2 3 3 4 2 1 2 1 1 1 2 2 2 2 2 2 1 1 2 3 3 3 3 3 3 3 3 3 3 3 4 3
3 3 3 3 3 3 3 2 2 2 2 3 3 3 5 2 2 2 2 2 2 2 2 2 2 2 2 2 2 2 2 3 2 2 2 2 2 3 3 3 3 3 3
3 3 4 3 3 4 4 3 2 2 2 2 3 3 3 2 2 2 2 2 2 2 2 2 2 2 2 2 2 2 3 3 3 3 3 2 2 2 3 3 3 3 4
3 3 3 3 3 3 3 3 3 3 3 3 3 3 3 3 3 3 3 2 2 2 2 2 2 3 4 3 2 2 3 3 3 3 4 3 3 3 3 3 3 4 4
3 3 3 3 3 3 3 3 3 3 3 3 3 3 3 3 3 3 3 2 3 3 3 3 2 3 4 4 4 4 5 7 6 3 3 3 4 4 4 4 4 4 4
3 3 3 3 3 3 3 4 4 4 4 4 3 3 3 3 3 3 3 3 3 3 3 3 3 4 5 4 5 7 8 8 8 8 4 3 4 4 4 3 4 4 4
Wind_Direction
210 213 217 216 210 196 198 206 200 195 189 197 200 196 194 195 191 187 191 180 181 182 179 178 186 175 175 166 160 164 168 158 186 222 186 163 166 182 201 200 209 217 228
226 215 218 218 203 201 214 215 201 200 199 202 197 194 195 192 189 189 191 188 185 188 191 186 194 181 179 175 175 180 181 175 173 198 195 191 196 193 194 210 225 225 226
196 203 223 223 209 215 222 208 196 194 197 197 191 196 197 192 192 195 190 191 194 196 195 197 200 187 191 183 182 188 185 179 169 174 193 188 193 177 176 220 231 234 245
151 183 222 242 228 220 216 189 187 181 185 198 205 206 200 192 194 195 191 196 199 201 202 203 201 195 195 186 185 189 179 170 165 172 185 192 197 183 167 196 244 233 257
313 270 264 270 264 231 187 173 170 170 184 188 193 200 194 195 200 197 194 196 196 199 205 208 209 202 199 194 189 185 180 176 174 180 191 187 193 186 198 190 217 254 264
318 297 310 327 346 341 296 230 164 175 179 169 185 194 201 217 209 203 194 191 191 195 205 209 209 203 205 206 207 200 193 185 185 186 195 200 209 201 188 186 192 194 267
337 331 334 350 3 353 351 15 340 254 174 192 204 199 214 221 206 204 198 188 190 199 202 199 206 205 201 195 205 208 212 212 202 190 193 204 203 197 184 191 199 207 229
347 340 343 6 13 5 12 349 313 295 233 237 237 224 218 225 210 206 201 190 190 201 201 200 202 199 198 188 181 191 213 216 211 205 203 204 202 192 189 196 204 217 242
349 333 328 340 354 354 328 295 281 257 265 254 242 231 230 246 225 207 189 177 192 209 208 205 201 202 206 197 182 192 216 227 223 216 215 215 214 210 193 170 177 195 250
333 325 321 321 320 298 286 286 289 252 250 262 274 246 228 242 239 215 191 179 194 211 218 216 212 212 213 207 194 192 218 227 203 203 215 222 217 214 210 196 187 200 224
329 334 337 337 325 303 310 312 309 326 336 322 307 301 247 243 238 216 200 192 192 201 216 217 216 216 220 219 214 208 224 215 190 191 200 204 199 200 207 204 196 196 207
345 346 341 339 339 355 13 352 353 15 10 335 346 340 329 307 291 231 218 221 212 204 214 209 210 218 226 229 230 224 226 218 185 180 195 208 209 212 216 214 214 216 219
1 355 347 351 352 359 24 15 359 358 330 301 329 310 316 327 318 301 261 242 239 238 203 202 217 227 233 237 233 232 229 207 191 199 212 221 213 210 205 209 220 226 238
3 355 359 4 5 10 13 14 360 325 295 297 298 293 302 310 305 297 283 269 241 242 196 184 212 220 220 237 255 248 226 206 202 210 211 212 191 192 207 203 215 218 239
2 2 4 9 7 6 7 4 345 319 287 280 265 252 256 279 279 278 273 253 223 208 170 103 86 187 201 215 231 237 228 214 221 211 204 205 206 213 226 216 211 212 231
5 4 359 356 358 1 4 2 8 353 342 332 310 295 295 284 288 277 272 266 252 232 202 186 216 222 222 223 225 237 235 231 224 218 215 212 216 219 228 227 225 224 237
1 353 349 350 349 347 349 348 344 357 5 355 344 333 321 312 313 302 292 281 252 220 209 203 216 222 226 222 222 230 239 236 227 221 219 215 215 218 221 230 233 233 238
0 353 348 340 336 334 329 324 320 328 337 341 346 345 343 339 337 334 325 355 319 330 231 222 230 229 228 228 226 228 237 236 227 224 224 222 215 213 221 228 231 233 241
355 347 342 337 335 332 328 326 325 323 319 321 333 341 349 350 2 5 23 29 287 281 278 259 249 242 237 230 229 229 233 236 231 225 229 224 216 212 224 232 237 248 251
352 351 350 345 345 342 336 333 329 324 319 318 321 325 336 349 356 355 0 354 330 305 292 280 270 256 251 240 238 237 238 235 228 228 232 225 220 218 226 233 236 241 246
346 346 349 349 347 340 337 334 328 323 318 318 318 323 331 335 326 322 325 326 317 308 301 292 283 268 263 259 247 242 242 244 235 230 230 226 221 227 232 233 238 241 245
346 343 341 336 336 337 334 332 330 324 318 314 320 326 331 343 331 320 317 316 316 310 301 292 281 271 257 249 247 248 249 251 243 229 227 229 229 231 233 237 242 245 245
343 342 341 338 334 333 336 334 328 320 313 310 312 319 324 323 319 315 312 311 312 310 307 297 284 281 281 272 252 235 240 246 241 226 224 231 231 231 231 236 239 245 248
339 337 334 332 331 329 325 322 320 317 316 313 311 309 309 308 307 307 309 309 310 307 302 295 284 278 280 284 276 261 249 251 243 230 222 226 231 234 233 236 240 242 248
331 327 325 321 319 317 316 315 315 313 311 309 306 305 305 306 304 304 304 304 303 301 298 295 290 285 282 280 279 273 267 268 262 244 223 225 229 230 230 236 240 243 248
322 316 311 307 304 304 305 306 307 307 303 302 302 300 298 296 295 295 295 296 296 294 291 288 282 280 281 282 279 278 278 274 268 259 244 226 224 228 228 236 237 242 248